User: anonymous   Login
Location: Arcueil
(48.7999°N, 2.3326°E)
Time: 21:19:10
(UTC+00:00)
Language:

NETSAT-4 - Orbit

View from above orbital plane
View from above orbital plane
View from above satellite
View from above satellite

Ground track
Ground track

The orbit data is extracted from the following two-line orbital elements,

1 46504U 20068U   24057.42328694  .00013050  00000-0  75567-3 0  9993
2 46504  97.7946  11.8863 0011469  34.6155 325.5820 15.12305262187261
Epoch (UTC): 26 February 2024 10:09:31
Eccentricity: 0.0011469
inclination: 97.7946°
perigee height: 521 km
apogee height: 537 km
right ascension of ascending node: 11.8863°
argument of perigee: 34.6155°
revolutions per day: 15.12305262
mean anomaly at epoch: 325.5820°
orbit number at epoch: 18726

The dashed part of the orbit path shows where the satellite is in the earth's shadow,  

DLR